Provo, UT

1:00 AM MST on December 08, 2019 (GMT -0700)
Provo Municipal

Weather History for KPVU - October, 2019

Change the Weather History Date:

Wednesday, October 2, 2019

  Actual Average Record
Temperature  
Mean Temperature 49 °F -  
Max Temperature 59 °F 69 °F 82 °F (1992)
Min Temperature 39 °F 42 °F 30 °F (1999)
Degree Days  
Heating Degree Days 16    
Moisture  
Dew Point 34 °F    
Average Humidity 59    
Maximum Humidity 86    
Minimum Humidity 31    
Precipitation  
Precipitation 0.00 in - - ()
Sea Level Pressure  
Sea Level Pressure 30.10 in    
Wind  
Wind Speed 5 mph (North)    
Max Wind Speed 15 mph    
Max Gust Speed -    
Visibility 10 miles    
Events      
Averages and records for this station are not official NWS values.
T = Trace of Precipitation, MM = Missing Value Source: NWS Daily Summary

Daily Weather History Graph

Daily Weather History Graph

Search for Another Location

Airport or City:

Astronomy

Oct. 02, 2019 Rise Set
Actual Time 7:24 AM MDT 7:07 PM MDT
Civil Twilight 6:56 AM MDT 7:34 PM MDT
Nautical Twilight 6:25 AM MDT 8:06 PM MDT
Astronomical Twilight 5:53 AM MDT 8:37 PM MDT
Moon 11:54 AM MDT (10/2) 10:04 PM MDT (10/2)
Length of Visible Light 12h 37m
Length of Day
11h 43m
Waxing Crescent, 21% of the Moon is Illuminated
Oct 2
Waxing Crescent
Oct 5
First Quarter
Oct 13
Full
Oct 21
Last Quarter
Oct 27
New

Hourly Weather History & Observations

Time (MDT) Temp. Windchill Dew Point Humidity Pressure Visibility Wind Dir Wind Speed Gust Speed Precip Events Conditions
12:56 AM 42.1 °F 39.2 °F 36.0 °F 79% 29.95 in 10.0 mi East 4.6 mph - N/A   Clear
1:56 AM 44.1 °F 39.5 °F 34.0 °F 68% 29.96 in 10.0 mi SW 8.1 mph - N/A   Clear
2:56 AM 45.0 °F 41.8 °F 37.0 °F 74% 29.97 in 10.0 mi NW 5.8 mph - N/A   Mostly Cloudy
3:56 AM 39.0 °F 36.8 °F 34.0 °F 82% 29.99 in 10.0 mi ESE 3.5 mph - N/A   Clear
4:56 AM 43.0 °F - 35.1 °F 74% 30.01 in 10.0 mi Calm Calm - N/A   Partly Cloudy
5:56 AM 41.0 °F - 34.0 °F 76% 30.05 in 10.0 mi Calm Calm - N/A   Overcast
6:56 AM 41.0 °F 36.4 °F 35.1 °F 79% 30.08 in 10.0 mi SE 6.9 mph - N/A   Mostly Cloudy
7:56 AM 39.0 °F 36.8 °F 35.1 °F 86% 30.12 in 10.0 mi ESE 3.5 mph - N/A   Overcast
8:56 AM 44.1 °F 40.8 °F 35.1 °F 71% 30.14 in 10.0 mi SSE 5.8 mph - N/A   Mostly Cloudy
9:56 AM 46.9 °F - 36.0 °F 66% 30.16 in 10.0 mi SSE 3.5 mph - N/A   Mostly Cloudy
10:56 AM 48.0 °F - 36.0 °F 63% 30.19 in 10.0 mi Variable 3.5 mph - N/A   Mostly Cloudy
11:56 AM 52.0 °F - 35.1 °F 53% 30.19 in 9.0 mi Variable 4.6 mph - N/A   Scattered Clouds
12:56 PM 54.0 °F - 33.1 °F 45% 30.20 in 10.0 mi Variable 3.5 mph - N/A   Scattered Clouds
1:56 PM 55.9 °F - 28.9 °F 36% 30.17 in 10.0 mi Variable 3.5 mph - N/A   Scattered Clouds
2:56 PM 57.0 °F - 27.0 °F 32% 30.14 in 10.0 mi Variable 4.6 mph - N/A   Clear
3:56 PM 59.0 °F - 28.0 °F 31% 30.14 in 10.0 mi NNW 8.1 mph - N/A   Clear
4:56 PM 59.0 °F - 30.0 °F 33% 30.12 in 10.0 mi NW 9.2 mph - N/A   Clear
5:56 PM 57.9 °F - 32.0 °F 37% 30.12 in 10.0 mi NNW 5.8 mph - N/A   Clear
6:56 PM 54.0 °F - 34.0 °F 47% 30.12 in 10.0 mi NW 9.2 mph - N/A   Clear
7:56 PM 53.1 °F - 35.1 °F 50% 30.14 in 10.0 mi NW 15.0 mph - N/A   Clear
8:56 PM 51.1 °F - 34.0 °F 52% 30.13 in 10.0 mi NNW 10.4 mph - N/A   Clear
9:56 PM 48.9 °F - 34.0 °F 56% 30.14 in 10.0 mi NNW 11.5 mph - N/A   Clear
10:56 PM 46.0 °F - 33.1 °F 61% 30.14 in 10.0 mi Calm Calm - N/A   Clear
11:56 PM 42.1 °F 38.4 °F 34.0 °F 73% 30.15 in 10.0 mi ESE 5.8 mph - N/A   Clear